Aérodrome :
LOGIN :

S'inscrire | Disclaimer

   EN    FR    IT 

 










Légende :    VFR   VFR Marginal   IFR   IFR Intensif   IFR Très Intensif
Visi : 
Plafond : 
>= 8 km
>= 3000ft
5 à 8 km
1000 à 3000 ft
1500m à 5 km
500 à 1000 ft
800 à 1500m
200 à 500 ft
< 800m
< 200 ft
Symboles :   Orages  Brouillard  Fortes neiges  Fortes précipitations  Vent > 20 kt
SIGMETs :   Divers  Orages  Givrage  Turbulence  Onde Orograph.  Cendres Volcan.







- Altitude de l'aérodrome : 3368 ft


LSGC - Les Eplatures

DERNIER METAR :
  • 171220Z AUTO 08006KT 030V150 CAVOK 21/11 Q1020

METARs EXPIRÉS :
  • 171150Z VRB05KT 9999 FEW045 21/09 Q1020
  • 171120Z 07005KT 340V120 9999 FEW045 20/08 Q1020
  • 171050Z 07007KT 010V130 CAVOK 20/09 Q1020
  • 171020Z 08007KT 010V150 CAVOK 20/09 Q1020
  • 170950Z 07009KT 040V140 CAVOK 19/08 Q1020

TAF TAF LSGC
Valide du 17 à 12h jusqu'au 17 à 21h UTC


171125Z 1712/1721 06006KT CAVOK
Pas de NOTAMs connus pour ce terrain.



MET'MAP, la Météo Aéronautique d'un coup d'oeil ! - Copyright ORBIFLY Décembre 2007 - Disclaimer

ORBIFLY MET'MAP TEAM :

Programmation & Développement : Alexandra Zaïnal
Conception & Développement : Baudouin d'Aumeries
Co-Programmation & Développement : Marc-Olivier Méhu
Soutien technique & logistique : Manuel Goepfert

Contact : metmap@orbifly.com




SOURCES & CREDITS :

   NOAA